Idabel, OK

12:08 AM CDT on June 25, 2017 (GMT -0500)
Idabel

Weather History for K4O4 - October, 2011

Change the Weather History Date:

Sunday, October 16, 2011

  Actual Average (KPRX) Record (KPRX)
Temperature  
Mean Temperature 69 °F -  
Max Temperature 87 °F 73 °F 87 °F (2011)
Min Temperature 51 °F 53 °F 39 °F (2001)
Cooling Degree Days 4    
Growing Degree Days 19 (Base 50)    
Moisture  
Dew Point 50 °F    
Average Humidity 47    
Maximum Humidity 82    
Minimum Humidity 25    
Precipitation  
Precipitation 0.00 in - - ()
Sea Level Pressure  
Sea Level Pressure 30.04 in    
Wind  
Wind Speed 4 mph (SW)    
Max Wind Speed 13 mph    
Max Gust Speed 18 mph    
Visibility 10 miles    
Events      
Averages and records for this station are not official NWS values.
T = Trace of Precipitation, MM = Missing Value Source: NWS Daily Summary

Daily Weather History Graph

Daily Weather History Graph

Search for Another Location

Airport or City:

Trip Planner

Search our weather history database for the weather conditions in past years. The results will help you decide how hot, cold, wet, or windy it might be!

Date:

Astronomy

Oct. 16, 2011 Rise Set
Actual Time 7:25 AM CDT 6:44 PM CDT
Civil Twilight 6:59 AM CDT 7:09 PM CDT
Nautical Twilight 6:30 AM CDT 7:38 PM CDT
Astronomical Twilight 6:01 AM CDT 8:07 PM CDT
Moon 9:42 PM CDT (10/16) 11:31 AM CDT (10/16)
Length of Visible Light 12h 09m
Length of Day
11h 19m
Waning Gibbous, 82% of the Moon is Illuminated
Oct 16
Waning Gibbous
Oct 19
Last Quarter
Oct 26
New
Nov 2
First Quarter
Nov 10
Full

Hourly Weather History & Observations

Time (CDT) Temp. Heat Index Dew Point Humidity Pressure Visibility Wind Dir Wind Speed Gust Speed Precip Events Conditions
1:35 AM 57.2 °F - 42.8 °F 59% 30.06 in 10.0 mi Calm Calm - N/A   Clear
3:55 AM 55.4 °F - 44.6 °F 67% 30.04 in 10.0 mi Calm Calm - N/A   Clear
7:55 AM 51.8 °F - 44.6 °F 76% 30.06 in 10.0 mi Calm Calm - N/A   Clear
8:15 AM 53.6 °F - 46.4 °F 77% 30.07 in 10.0 mi Calm Calm - N/A   Clear
8:35 AM 55.4 °F - 50.0 °F 82% 30.07 in 10.0 mi Calm Calm - N/A   Clear
8:55 AM 59.0 °F - 50.0 °F 72% 30.08 in 10.0 mi Calm Calm - N/A   Clear
9:15 AM 64.4 °F - 50.0 °F 59% 30.08 in 10.0 mi Calm Calm - N/A   Clear
9:35 AM 68.0 °F - 50.0 °F 52% 30.09 in 10.0 mi WSW 9.2 mph - N/A   Clear
9:55 AM 69.8 °F - 51.8 °F 53% 30.09 in 10.0 mi WSW 5.8 mph - N/A   Clear
10:15 AM 71.6 °F - 51.8 °F 50% 30.08 in 10.0 mi West 8.1 mph - N/A   Clear
10:35 AM 73.4 °F - 53.6 °F 50% 30.08 in 10.0 mi SW 5.8 mph - N/A   Clear
10:55 AM 75.2 °F - 53.6 °F 47% 30.08 in 10.0 mi SW 6.9 mph - N/A   Clear
11:15 AM 77.0 °F - 53.6 °F 44% 30.08 in 10.0 mi SSW 5.8 mph - N/A   Clear
11:35 AM 78.8 °F - 53.6 °F 42% 30.08 in 10.0 mi SW 9.2 mph - N/A   Clear
11:55 AM 80.6 °F 80.3 °F 53.6 °F 39% 30.07 in 10.0 mi SSW 9.2 mph - N/A   Clear
12:15 PM 80.6 °F - 51.8 °F 37% 30.07 in 10.0 mi SW 11.5 mph - N/A   Clear
12:35 PM 82.4 °F - 51.8 °F 35% 30.06 in 10.0 mi SSW 11.5 mph 17.3 mph N/A   Clear
1:15 PM 84.2 °F - 51.8 °F 33% 30.03 in 10.0 mi WSW 12.7 mph 18.4 mph N/A   Clear
1:35 PM 86.0 °F - 50.0 °F 29% 30.02 in 10.0 mi SSW 11.5 mph 18.4 mph N/A   Clear
1:55 PM 86.0 °F - 50.0 °F 29% 30.01 in 10.0 mi SW 9.2 mph - N/A   Clear
2:35 PM 87.8 °F - 50.0 °F 27% 29.99 in 10.0 mi SSW 12.7 mph - N/A   Clear
2:55 PM 87.8 °F - 50.0 °F 27% 29.98 in 10.0 mi SW 11.5 mph - N/A   Clear
3:35 PM 87.8 °F - 50.0 °F 27% 29.97 in 10.0 mi SSW 5.8 mph 10.4 mph N/A   Clear
4:15 PM 87.8 °F - 50.0 °F 27% 29.96 in 10.0 mi SW 11.5 mph 17.3 mph N/A   Clear
4:35 PM 87.8 °F - 48.2 °F 25% 29.95 in 10.0 mi South 10.4 mph - N/A   Clear
11:35 PM 64.4 °F - 48.2 °F 56% 29.96 in 10.0 mi Calm Calm - N/A   Clear